Location: Unspecified
(43.8044°N, 11.0278°E)
Time: 19:33:37
(UTC+02:00)

Cosmos 2058 - Visible Passes

Search period start: 31 July 2014 00:00
Search period end: 10 August 2014 00:00
Orbit: 572 x 593 km, 82.5° (Epoch: 30 July)

Date Brightness Start Highest point End Pass type
(mag) Time Alt. Az. Time Alt. Az. Time Alt. Az.
31 Jul 3.9 03:34:43 10° N 03:38:48 46° ENE 03:41:33 19° SE visible
31 Jul 4.7 05:13:04 10° NW 05:15:28 15° W 05:17:51 10° WSW visible
01 Aug 3.2 03:40:30 10° N 03:44:43 66° E 03:46:46 29° SSE visible
01 Aug 5.0 05:20:18 10° WNW 05:21:11 11° W 05:22:03 10° W visible
02 Aug 2.8 03:46:22 10° N 03:50:36 87° W 03:52:02 41° S visible
03 Aug 5.7 02:17:08 10° NE 02:18:54 12° ENE 02:20:40 10° E visible
03 Aug 2.9 03:52:18 10° NNW 03:56:27 61° W 03:57:21 48° SW visible
04 Aug 5.3 02:22:11 10° NNE 02:24:57 17° ENE 02:26:21 15° E visible
04 Aug 3.3 03:58:18 10° NNW 04:02:17 42° W 04:02:42 40° WSW visible
05 Aug 4.9 02:27:36 10° NNE 02:30:57 23° ENE 02:31:44 22° E visible
05 Aug 3.9 04:04:24 10° NNW 04:08:04 30° W 04:08:06 30° W visible
06 Aug 4.4 02:33:10 10° NNE 02:36:56 31° ENE 02:37:10 31° E visible
06 Aug 4.4 04:10:38 10° NW 04:13:32 21° W 04:13:32 21° W visible
07 Aug 3.9 02:38:51 10° N 02:42:37 43° ENE 02:42:37 43° ENE visible
07 Aug 4.9 04:17:05 10° NW 04:18:59 15° WNW 04:18:59 15° WNW visible
08 Aug 3.6 02:44:36 10° N 02:48:06 53° NE 02:48:06 53° NE visible
08 Aug 5.3 04:24:08 10° WNW 04:24:28 11° WNW 04:24:28 11° WNW visible
09 Aug 3.7 02:50:27 10° N 02:53:36 50° N 02:53:36 50° N visible
